| time (UTC) | temp C | wind direction | speed KPH | gust KPH | rain 1hr cm | rain 24hr cm | rain mn cm | humidity % | barometer mb |
| 20260506184824 | 9 | 163 | 6.4 | 11.3 | 0.00 | 0.00 | 0.00 | 62 | 1001.7 |
| 20260506183325 | 9 | 151 | 3.2 | 3.2 | 0.00 | 0.00 | 0.00 | 58 | 1001.7 |
| 20260506181825 | 10 | 150 | 3.2 | 4.8 | 0.00 | 0.00 | 0.00 | 55 | 1001.7 |
| 20260506180325 | 10 | 115 | 0.0 | 0.0 | 0.00 | 0.00 | 0.00 | 52 | 1001.7 |
| 20260506174825 | 10 | 118 | 3.2 | 4.8 | 0.00 | 0.00 | 0.00 | 50 | 1001.7 |
| 20260506173325 | 11 | 92 | 4.8 | 6.4 | 0.00 | 0.00 | 0.00 | 49 | 1001.7 |
| 20260506171825 | 11 | 115 | 1.6 | 1.6 | 0.00 | 0.00 | 0.00 | 47 | 1001.7 |
| 20260506170325 | 11 | 134 | 0.0 | 1.6 | 0.00 | 0.00 | 0.00 | 51 | 1001.7 |
| 20260506164826 | 10 | 105 | 3.2 | 3.2 | 0.00 | 0.00 | 0.00 | 50 | 1001.7 |
| 20260506163326 | 11 | 102 | 1.6 | 1.6 | 0.00 | 0.00 | 0.00 | 49 | 1002.0 |
| 20260506161825 | 11 | 101 | 0.0 | 1.6 | 0.00 | 0.00 | 0.00 | 52 | 1002.0 |
| 20260506160325 | 11 | 131 | 0.0 | 0.0 | 0.00 | 0.00 | 0.00 | 52 | 1002.0 |
| 20260506154825 | 11 | 140 | 0.0 | 1.6 | 0.00 | 0.00 | 0.00 | 51 | 1002.0 |
| 20260506153325 | 11 | 143 | 0.0 | 1.6 | 0.00 | 0.00 | 0.00 | 53 | 1002.0 |
| 20260506151828 | 11 | 111 | 1.6 | 3.2 | 0.00 | 0.00 | 0.00 | 53 | 1002.0 |
| 20260506150325 | 11 | 125 | 3.2 | 4.8 | 0.00 | 0.00 | 0.00 | 52 | 1002.0 |
| 20260506144824 | 10 | 124 | 4.8 | 6.4 | 0.00 | 0.00 | 0.00 | 53 | 1002.4 |
| 20260506143326 | 10 | 95 | 3.2 | 3.2 | 0.00 | 0.00 | 0.00 | 53 | 1002.4 |
| 20260506141825 | 10 | 123 | 1.6 | 3.2 | 0.00 | 0.00 | 0.00 | 54 | 1002.4 |
| 20260506140325 | 11 | 89 | 1.6 | 3.2 | 0.00 | 0.00 | 0.00 | 54 | 1002.4 |
| 20260506134826 | 11 | 106 | 0.0 | 0.0 | 0.00 | 0.00 | 0.00 | 54 | 1002.4 |
| 20260506133325 | 11 | 134 | 0.0 | 0.0 | 0.00 | 0.00 | 0.00 | 51 | 1002.4 |
| 20260506131825 | 11 | 257 | 1.6 | 1.6 | 0.00 | 0.00 | 0.00 | 49 | 1002.7 |
| 20260506130324 | 11 | 136 | 1.6 | 1.6 | 0.00 | 0.00 | 0.00 | 50 | 1002.0 |
| 20260506124825 | 12 | 21 | 0.0 | 1.6 | 0.00 | 0.00 | 0.00 | 47 | 1002.4 |
| 20260506123331 | 11 | 136 | 1.6 | 3.2 | 0.00 | 0.00 | 0.00 | 52 | 1002.4 |
| 20260506121831 | 12 | 25 | 1.6 | 1.6 | 0.00 | 0.00 | 0.00 | 45 | 1002.4 |
| 20260506120325 | 13 | 287 | 1.6 | 3.2 | 0.00 | 0.00 | 0.00 | 45 | 1002.4 |
| 20260506114825 | 12 | 16 | 1.6 | 1.6 | 0.00 | 0.00 | 0.00 | 49 | 1002.4 |
| 20260506113325 | 12 | 348 | 0.0 | 1.6 | 0.00 | 0.00 | 0.00 | 49 | 1002.7 |
| 20260506111825 | 13 | 194 | 0.0 | 1.6 | 0.00 | 0.00 | 0.00 | 47 | 1003.0 |
| 20260506110325 | 13 | 108 | 1.6 | 3.2 | 0.00 | 0.00 | 0.00 | 47 | 1003.0 |
| 20260506104825 | 12 | 101 | 1.6 | 1.6 | 0.00 | 0.00 | 0.00 | 48 | 1002.7 |
| 20260506103356 | 12 | 32 | 1.6 | 3.2 | 0.00 | 0.00 | 0.00 | 48 | 1003.0 |
| 20260506101825 | 12 | 225 | 3.2 | 6.4 | 0.00 | 0.00 | 0.00 | 49 | 1003.0 |
| 20260506100325 | 12 | 118 | 1.6 | 1.6 | 0.00 | 0.00 | 0.00 | 49 | 1003.0 |
| 20260506094825 | 11 | 6 | 1.6 | 1.6 | 0.00 | 0.00 | 0.00 | 55 | 1003.0 |
| 20260506093325 | 11 | 305 | 3.2 | 3.2 | 0.00 | 0.00 | 0.00 | 56 | 1003.4 |
| 20260506091825 | 10 | 99 | 3.2 | 3.2 | 0.00 | 0.00 | 0.00 | 59 | 1003.0 |
| 20260506090325 | 10 | 344 | 0.0 | 1.6 | 0.00 | 0.00 | 0.00 | 58 | 1003.4 |
| 20260506084825 | 10 | 43 | 1.6 | 1.6 | 0.00 | 0.00 | 0.00 | 60 | 1003.4 |
| 20260506083324 | 9 | 21 | 0.0 | 0.0 | 0.00 | 0.00 | 0.00 | 64 | 1003.4 |
| 20260506081825 | 8 | 285 | 3.2 | 4.8 | 0.00 | 0.00 | 0.00 | 65 | 1003.4 |
| 20260506080326 | 8 | 144 | 1.6 | 3.2 | 0.00 | 0.00 | 0.00 | 68 | 1003.4 |
| 20260506073325 | 8 | 299 | 1.6 | 1.6 | 0.00 | 0.00 | 0.00 | 67 | 1003.4 |
| 20260506071825 | 7 | 342 | 0.0 | 0.0 | 0.00 | 0.00 | 0.00 | 70 | 1003.4 |
| 20260506070325 | 6 | 18 | 0.0 | 1.6 | 0.00 | 0.00 | 0.00 | 71 | 1003.4 |
| 20260506061825 | 5 | 318 | 1.6 | 1.6 | 0.00 | 0.00 | 0.00 | 72 | 1003.4 |
| 20260506060325 | 5 | 359 | 0.0 | 0.0 | 0.00 | 0.00 | 0.00 | 72 | 1003.0 |
| 20260506050325 | 4 | 357 | 0.0 | 1.6 | 0.00 | 0.00 | 0.00 | 75 | 1003.4 |
| 20260506044825 | 3 | 320 | 0.0 | 0.0 | 0.00 | 0.00 | 0.00 | 77 | 1003.4 |
| 20260506043326 | 3 | 320 | 1.6 | 3.2 | 0.00 | 0.00 | 0.00 | 79 | 1003.4 |
| 20260506041826 | 3 | 348 | 1.6 | 1.6 | 0.00 | 0.00 | 0.00 | 81 | 1003.0 |
| 20260506040326 | 3 | 43 | 0.0 | 0.0 | 0.00 | 0.00 | 0.00 | 82 | 1003.0 |
| 20260506034826 | 3 | 325 | 0.0 | 0.0 | 0.00 | 0.00 | 0.00 | 82 | 1003.4 |
| 20260506033328 | 3 | 325 | 0.0 | 0.0 | 0.00 | 0.00 | 0.00 | 81 | 1003.0 |
| 20260506031826 | 3 | 278 | 0.0 | 1.6 | 0.00 | 0.00 | 0.00 | 81 | 1003.4 |
| 20260506030325 | 3 | 181 | 0.0 | 0.0 | 0.00 | 0.00 | 0.00 | 80 | 1003.4 |
| 20260506024826 | 3 | 112 | 0.0 | 0.0 | 0.00 | 0.00 | 0.00 | 79 | 1003.4 |
| 20260506023325 | 4 | 122 | 0.0 | 1.6 | 0.00 | 0.00 | 0.00 | 79 | 1003.4 |
| 20260506021825 | 4 | 127 | 1.6 | 3.2 | 0.00 | 0.00 | 0.00 | 79 | 1003.4 |
| 20260506020325 | 3 | 114 | 0.0 | 0.0 | 0.00 | 0.00 | 0.00 | 80 | 1003.4 |
| 20260506014825 | 4 | 114 | 0.0 | 0.0 | 0.00 | 0.00 | 0.00 | 79 | 1003.4 |
| 20260506013327 | 4 | 197 | 0.0 | 0.0 | 0.00 | 0.00 | 0.00 | 78 | 1003.7 |
| 20260506011826 | 5 | 178 | 0.0 | 0.0 | 0.00 | 0.00 | 0.00 | 77 | 1003.4 |
| 20260506010327 | 5 | 10 | 0.0 | 0.0 | 0.00 | 0.00 | 0.00 | 77 | 1003.7 |
| 20260506004830 | 5 | 339 | 0.0 | 1.6 | 0.00 | 0.00 | 0.00 | 76 | 1003.7 |
| 20260506003325 | 5 | 316 | 0.0 | 0.0 | 0.00 | 0.00 | 0.00 | 76 | 1003.7 |
| 20260506001825 | 6 | 295 | 0.0 | 0.0 | 0.00 | 0.00 | 0.00 | 75 | 1003.4 |
| 20260506000325 | 6 | 289 | 3.2 | 3.2 | 0.00 | 0.00 | 0.00 | 77 | 1003.4 |
| 20260505234825 | 6 | 62 | 0.0 | 1.6 | 0.00 | 0.00 | 0.00 | 78 | 1003.4 |
| 20260505233326 | 6 | 94 | 0.0 | 0.0 | 0.00 | 0.00 | 0.00 | 78 | 1003.4 |
| 20260505231825 | 6 | 249 | 1.6 | 1.6 | 0.00 | 0.00 | 0.00 | 78 | 1003.4 |
| 20260505230325 | 6 | 30 | 1.6 | 1.6 | 0.00 | 0.00 | 0.00 | 77 | 1003.7 |
| 20260505224825 | 6 | 138 | 3.2 | 4.8 | 0.00 | 0.00 | 0.00 | 75 | 1003.7 |
| 20260505223325 | 6 | 97 | 6.4 | 9.7 | 0.00 | 0.00 | 0.00 | 76 | 1003.4 |
| 20260505221825 | 6 | 82 | 4.8 | 4.8 | 0.00 | 0.00 | 0.00 | 77 | 1003.4 |
| 20260505220346 | 6 | 149 | 1.6 | 1.6 | 0.00 | 0.00 | 0.00 | 77 | 1003.7 |
| 20260505214826 | 6 | 109 | 4.8 | 6.4 | 0.00 | 0.00 | 0.00 | 76 | 1003.4 |
| 20260505213326 | 6 | 102 | 6.4 | 11.3 | 0.00 | 0.00 | 0.00 | 76 | 1003.4 |
| 20260505211824 | 6 | 133 | 1.6 | 1.6 | 0.00 | 0.00 | 0.00 | 76 | 1003.4 |
| 20260505210325 | 6 | 105 | 1.6 | 1.6 | 0.00 | 0.00 | 0.00 | 75 | 1003.7 |
| 20260505204825 | 7 | 159 | 0.0 | 1.6 | 0.00 | 0.00 | 0.00 | 75 | 1003.4 |
| 20260505203324 | 7 | 34 | 0.0 | 0.0 | 0.00 | 0.00 | 0.00 | 75 | 1003.4 |
| 20260505201825 | 7 | 108 | 3.2 | 6.4 | 0.00 | 0.00 | 0.00 | 74 | 1003.4 |
| 20260505200325 | 7 | 174 | 0.0 | 0.0 | 0.00 | 0.00 | 0.00 | 74 | 1003.0 |
| 20260505194825 | 7 | 120 | 1.6 | 3.2 | 0.00 | 0.00 | 0.00 | 74 | 1003.0 |
| 20260505193325 | 7 | 275 | 3.2 | 4.8 | 0.00 | 0.00 | 0.00 | 74 | 1003.0 |
| 20260505191826 | 7 | 102 | 3.2 | 3.2 | 0.00 | 0.00 | 0.00 | 75 | 1002.7 |
| 20260505190325 | 7 | 151 | 3.2 | 3.2 | 0.00 | 0.00 | 0.00 | 75 | 1002.7 |